Hourly Data Report for September 03, 2017

All times are specified in Local Standard Time (LST). Add 1 hour to adjust for Daylight Saving Time where and when it is observed.

EAST POINT (AUT)
PRINCE EDWARD ISLAND

46°27'36.000" N
61°59'18.000" W
7.70 m
8300418
71412
WEP

Download Data

Hourly Data (September 2017)
Hourly Data Report for September 3, 2017
Temp Definition
°C
Dew Point Temp Definition
°C
Rel Hum Definition
%
Wind Dir Definition
10's deg

Wind Spd Definition
km/h
Visibility Definition
km
Stn Press Definition
kPa
Hmdx Definition


Wind Chill Definition


Weather Definition


TIME
00:00 13.3 8.6 73 32 13   102.15     LegendNANA
01:00 10.8 7.7 82 24 10   102.22     LegendNANA
02:00 10.7 8.2 84 24 11   102.24     LegendNANA
03:00 11.0 8.3 84 24 10   102.27     LegendNANA
04:00 9.8 7.8 87 25 10   102.26     LegendNANA
05:00 9.0 7.3 89 24 10   102.30     LegendNANA
06:00 9.5 7.7 88 24 12   102.36     LegendNANA
07:00 12.0 8.8 81 23 7   102.39     LegendNANA
08:00 16.0 9.2 64 20 3   102.44     LegendNANA
09:00 16.6 9.0 61 19 6   102.43     LegendNANA
10:00 17.2 10.2 64 17 11   102.45     LegendNANA
11:00 16.6 10.4 67 17 12   102.45     LegendNANA
12:00 16.9 10.2 65 18 17   102.36     LegendNANA
13:00 17.2 10.5 65 17 17   102.29     LegendNANA
14:00 17.6 10.1 61 16 16   102.21     LegendNANA
15:00 17.6 11.0 65 17 13   102.18     LegendNANA
16:00 17.9 11.1 65 18 11   102.12     LegendNANA
17:00 17.6 11.7 68 16 24   102.08     LegendNANA
18:00 17.2 10.8 66 17 27   102.06     LegendNANA
19:00 16.4 11.0 70 16 22   101.99     LegendNANA
20:00 16.2 10.4 69 17 27   101.93     LegendNANA
21:00 16.2 11.0 71 16 24   101.84     LegendNANA
22:00 16.0 11.6 75 16 27   101.71     LegendNANA
23:00 15.9 12.1 79 14 27   101.55     LegendNANA

Notes on Data Quality.

Legend

  • E = Estimated
  • M = Missing
  • NA = Not Available
  • ‡ = Partner data that is not subject to review by the National Climate Archives
Date modified: